Calsphere IV

operational
NORAD ID: 2826 Int'l Des: 1967-053 Owner: NRL Country: US
LEOCIRCULAR

About Calsphere IV

Description loading...

Live Position

Loading 3D Globe...

Upcoming Passes

Altitude History

Altitude vs Time

uPlot chart will show altitude changes over time

Two-Line Element Set

1 02826U 67053A 25314.87462370 .00012297 00000-0 19021-2 0 9997
2 02826 69.9181 211.7809 0004757 301.6267 58.4414 14.73397973 34028
Epoch: Nov 10, 2025 • Age: 17 hours

Current Status

Altitude 661.4 km
Velocity 7.53 km/s
Sub-Earth Point 52.08°N, 103.67°E
Type other

Large Constellations

Loading constellations...